sat.trackr.live / text

‹ back to catalog

STARLINK-37491

NORAD 69166 · 2026-111U

PAYLOAD ACTIVE UNKNOWN

§ Identity

Operator
Country
US
Launch date
2026-05-21
Launch site
AFETR
Launch vehicle
Mass (kg)
RCS (m²)

Purposes: comms

External: N2YO · Heavens-Above · Gunter

§ Orbital elements

Epoch: 2026-09-19T22:32:34.751904Z

Period
93.85 min
Inclination
53.1586°
Eccentricity
0.0001146
Mean motion
15.34408850 rev/d
Perigee alt
461.9 km
Apogee alt
463.5 km
Semi-major
6,840.8 km
B*
6.6572e-4
RAAN
68.2725°
Arg perigee
87.9433°
Mean anomaly
272.1701°
Rev number
1,881

§ Raw data

STARLINK-374911 69166U 26111U   26262.93929111  .00022189  00000+0  66572-3 0  99922 69166  53.1586  68.2725 0001146  87.9433 272.1701 15.34408850 18810

JSON: /api/v1/satellites/69166 · /tle

For live sub-satellite position, see the globe view (requires WebGL).

§ Visibility from observer

Set your observer location to see the next 7 days of passes ≥ 10°. The values pass through the URL so the page stays shareable.

No JS? Fill the form by hand. The geolocation button needs JavaScript.